Location: Unspecified
(0.0000°N, 0.0000°E)
Time: 14:29:59
(UTC+00:00)

Altair - Pass Details

Date: 29 October 2021
Orbit: 1502 x 1682 km, 47.2° (Epoch: 26 November)

Event Time Altitude Azimuth Distance (km) Brightness Sun altitude
Rises 00:26:09 0° 260° (W) 4,638 - -72.9°
Reaches altitude 10° 00:30:56 10° 281° (WNW) 3,646 - -72.2°
Maximum altitude 00:35:46 15° 314° (NW) 3,239 - -71.4°
Drops below altitude 10° 00:40:39 10° 347° (NNW) 3,655 - -70.5°
Sets 00:45:32 0° 9° (N) 4,656 - -69.6°
